Location: Bergnershof
(48.9468°N, 10.9431°E)
Time: 23:50:57
(UTC+00:00)

CZ-4 R/B - Pass Details

Date: 03 March 2021
Orbit: 532 x 597 km, 97.7° (Epoch: 12 April)

Event Time Altitude Azimuth Distance (km) Brightness Sun altitude
Rises 18:02:42 0° 175° (S) 2,668 4.8 -10.6°
Reaches altitude 10° 18:04:49 10° 180° (S) 1,786 3.9 -10.9°
Maximum altitude 18:08:36 57° 259° (W) 643 2.0 -11.6°
Drops below altitude 10° 18:12:29 10° 339° (NNW) 1,825 4.3 -12.2°
Sets 18:14:40 0° 344° (NNW) 2,733 5.2 -12.6°
